Regional Weather Roundup
Issued by NWS

Home | Current Version | Previous Version | Graphics & Text | Print | Product List | Glossary Off
Versions: 1 2 3 4 5 6 7 8 9 10 11 12 13 14 15 16 17 18 19 20 21 22 23 24 25 26 27 28 29 30 31 32 33 34 35 36 37 38 39 40 41 42 43 44 45 46 47 48 49 50

000
ASUS43 KLSX 021207
RWRMO

WEATHER SUMMARY FOR MISSOURI
NATIONAL WEATHER SERVICE SPRINGFIELD MO
600 AM CST MON MAR 02 2015

NOTE: "FAIR" INDICATES FEW OR NO CLOUDS BELOW 12,000 FEET WITH NO
       SIGNIFICANT WEATHER AND/OR OBSTRUCTIONS TO VISIBILITY.
       CURRENT SKY AND/OR WEATHER CONDITIONS ARE NOT AVAILABLE FOR
       CHILLICOTHE AND FARMINGTON.

MOZ001>031-035>038-043-044-053-054-021300-
...NORTHERN AND WESTERN MISSOURI...

CITY           SKY/WX    TMP DP  RH WIND       PRES   REMARKS
KANSAS CTY INT PTCLDY    23  17  78 CALM      30.48R
6HR MIN TEMP:  20; 6HR MAX TEMP:  28;

KANSAS C DTWN  MOCLDY    23  20  88 CALM      30.50S
6HR MIN TEMP:  21; 6HR MAX TEMP:  27;

LEE`S SUMMIT   MOCLDY    24  19  81 SE7       30.48R WCI  16
6HR MIN TEMP:  20; 6HR MAX TEMP:  26;

ST JOSEPH      MOCLDY    23  20  88 E3        30.50R
6HR MIN TEMP:  22; 6HR MAX TEMP:  26;

CHILLICOTHE      N/A     21  17  84 CALM      30.52R
6HR MIN TEMP:  19; 6HR MAX TEMP:  26;

KIRKSVILLE     PTCLDY    20  18  92 NW5       30.50S WCI  13
6HR MIN TEMP:  18; 6HR MAX TEMP:  22;


$$
MOZ066>068-077>081-088>096-101>105-021300-
...SOUTHWEST MISSOURI...

CITY           SKY/WX    TMP DP  RH WIND       PRES   REMARKS
SPRINGFIELD    MOCLDY    23  17  78 E7        30.45S WCI  15
6HR MIN TEMP:  20; 6HR MAX TEMP:  25;

JOPLIN         PTCLDY    21  17  84 VRB3      30.48R
6HR MIN TEMP:  20; 6HR MAX TEMP:  24;


$$
MOZ032>034-039>042-045>050-055>058-069>072-021300-
...CENTRAL MISSOURI...

CITY           SKY/WX    TMP DP  RH WIND       PRES   REMARKS
COLUMBIA       FOG       18  14  84 CALM      30.50F VSB 1/4
6HR MIN TEMP:  14; 6HR MAX TEMP:  20;

JEFFERSON CITY PTCLDY    12   9  87 CALM      30.54F FOG
6HR MIN TEMP:  10; 6HR MAX TEMP:  17;

ROLLA          FOG       13  10  88 NE3       30.48R VSB 1
6HR MIN TEMP:   7; 6HR MAX TEMP:  19;

SEDALIA        MOCLDY    15  10  80 CALM      30.51S HAZE
6HR MIN TEMP:  13; 6HR MAX TEMP:  21;

WHITEMAN AFB   CLEAR     10   6  86 CALM      30.48F
WARRENSBURG    MOCLDY    12   9  85 CALM      30.50S
OSAGE BEACH    CLOUDY    12   9  85 CALM      30.51R

$$
MOZ051-052-059>065-021300-
...EAST CENTRAL MISSOURI...

CITY           SKY/WX    TMP DP  RH WIND       PRES   REMARKS
ST LOUIS INTL  MOCLDY    18  12  77 CALM      30.54R HAZE
6HR MIN TEMP:  13; 6HR MAX TEMP:  22;

SPIRIT OF STL  PTCLDY     7   4  87 SW3       30.54R
6HR MIN TEMP:   6; 6HR MAX TEMP:  15;

ST CHARLES     FOG        9   7  92 CALM      30.54S VSB 1/4
6HR MIN TEMP:   5; 6HR MAX TEMP:  14;


$$
MOZ072>076-082>087-097>100-106>115-021300-
...SOUTH CENTRAL AND SOUTHEAST MISSOURI...

CITY           SKY/WX    TMP DP  RH WIND       PRES   REMARKS
CAPE GIRARDEAU PTCLDY    27  21  78 NE9       30.53R WCI  18
6HR MIN TEMP:  26; 6HR MAX TEMP:  31;

FARMINGTON     PTCLDY    18  16  93 CALM      30.54R
6HR MIN TEMP:  18; 6HR MAX TEMP:  27;

POPLAR BLUFF   PTCLDY    29  20  69 N10       30.50S WCI  20
6HR MIN TEMP:  29; 6HR MAX TEMP:  33;

WEST PLAINS    PTCLDY    23  19  85 NE6       30.47S WCI  16
6HR MIN TEMP:  23; 6HR MAX TEMP:  29;


$$



USA.gov is the U.S. government's official web portal to all federal, state and local government web resources and services.